Location: Azat
(46.0765°N, 1.7600°E)
Time: 12:12:08
(UTC+00:00)

STARLINK-1199 - Pass Details

Date: 09 April 2020
Orbit: 548 x 551 km, 53.0° (Epoch: 27 May)

Event Time Altitude Azimuth Distance (km) Brightness Sun altitude
Rises 19:47:49 0° 299° (WNW) 2,718 9.2 -13.1°
Reaches altitude 10° 19:50:05 10° 296° (WNW) 1,822 7.8 -13.4°
Maximum altitude 19:54:09 59° 217° (SW) 634 3.9 -14.1°
Enters shadow 19:56:36 22° 144° (SE) 1,208 4.8 -14.4°
